Track STARLINK-3840 now! 10-day predictions STARLINK-3840 is classified as:
1 52466U 22049R 22188.25002315 -.01069182 00000-0 -30477-1 0 9990 2 52466 53.2173 322.4784 0001842 34.7898 92.1986 15.38209792 9875